Regional Weather Roundup
Issued by NWS

Home | Current Version | Previous Version | Graphics & Text | Print | Product List | Glossary On
Versions: 1 2 3 4 5 6 7 8 9 10 11 12 13 14 15 16 17 18 19 20 21 22 23 24 25 26 27 28 29 30 31 32 33 34 35 36 37 38 39 40 41 42 43 44 45 46 47 48 49 50
000
ASUS43 KLSX 310059
RWRMO

WEATHER SUMMARY FOR MISSOURI
NATIONAL WEATHER SERVICE SPRINGFIELD MO
800 PM CDT SAT AUG 30 2014

NOTE: "FAIR" INDICATES FEW OR NO CLOUDS BELOW 12,000 FEET WITH NO
       SIGNIFICANT WEATHER AND/OR OBSTRUCTIONS TO VISIBILITY.
       CURRENT SKY AND/OR WEATHER CONDITIONS ARE NOT AVAILABLE FOR
       CHILLICOTHE AND FARMINGTON.

MOZ001>031-035>038-043-044-053-054-310200-
...NORTHERN AND WESTERN MISSOURI...

CITY           SKY/WX    TMP DP  RH WIND       PRES   REMARKS
KANSAS CTY INT PTCLDY    79  66  64 SE3       29.90R
KANSAS C DTWN  CLEAR     82  67  60 E6        29.88R
LEE`S SUMMIT   CLEAR     79  68  69 E5        29.91R
ST JOSEPH      CLEAR     78  69  73 S3        29.88S
KIRKSVILLE     CLEAR     75  70  84 CALM      29.91R

$$
MOZ066>068-077>081-088>096-101>105-310200-
...SOUTHWEST MISSOURI...

CITY           SKY/WX    TMP DP  RH WIND       PRES   REMARKS
SPRINGFIELD    MOCLDY    72  67  84 S12       29.93R
JOPLIN         CLEAR     82  68  62 S9        29.90R

$$
MOZ032>034-039>042-045>050-055>058-069>072-310200-
...CENTRAL MISSOURI...

CITY           SKY/WX    TMP DP  RH WIND       PRES   REMARKS
COLUMBIA       MOCLDY    77  70  79 S7        29.91R
JEFFERSON CITY CLOUDY    76  69  79 E3        29.90R
ROLLA          CLOUDY    72  67  84 S8        29.92R
SEDALIA        PTCLDY    82  66  58 CALM      29.90S
OSAGE BEACH    CLOUDY    77  66  69 S5        29.91R

$$
MOZ051-052-059>065-310200-
...EAST CENTRAL MISSOURI...

CITY           SKY/WX    TMP DP  RH WIND       PRES   REMARKS
ST LOUIS INTL  MOCLDY    80  72  76 S7        29.91S
SPIRIT OF STL  MOCLDY    79  72  79 S3        29.89S
ST CHARLES     MOCLDY    78  73  84 S6        29.89S

$$
MOZ072>076-082>087-097>100-106>115-310200-
...SOUTH CENTRAL AND SOUTHEAST MISSOURI...

CITY           SKY/WX    TMP DP  RH WIND       PRES   REMARKS
CAPE GIRARDEAU CLOUDY    75  70  84 S7        29.97S
FARMINGTON     CLOUDY    75  70  83 S12       29.97F
POPLAR BLUFF   CLOUDY    76  68  76 S7        29.96F
WEST PLAINS    PTCLDY    77  68  73 S6        29.98R

$$



USA.gov is the U.S. government's official web portal to all federal, state and local government web resources and services.